Regional Weather Roundup
Issued by NWS Charleston, SC

Home | Current Version | Previous Version | Text Only | Print | Product List | Glossary On
Versions: 1 2 3 4 5 6 7 8 9 10 11 12 13 14 15 16 17 18 19 20 21 22 23 24 25 26 27 28 29 30 31 32 33 34 35 36 37 38 39 40 41 42 43 44 45 46 47 48 49 50
000
ASUS42 KCHS 230312
RWRCHS

REGIONAL WEATHER ROUNDUP
NATIONAL WEATHER SERVICE CHARLESTON SC
1100 PM EDT FRI MAY 22 2015

NOTE: "FAIR" INDICATES FEW OR NO CLOUDS BELOW 12,000 FEET WITH NO
SIGNIFICANT WEATHER AND/OR OBSTRUCTIONS TO VISIBILITY.

NOT ALL STATIONS ARE QUALITY CONTROLLED BY THE NATIONAL
WEATHER SERVICE. USE DATA WITH CAUTION...ESPECIALLY
DEWPOINT OBSERVATIONS.

SCZ027-030-031-034>040-042>050-230400-
...SOUTHEAST SOUTH CAROLINA...

CITY           SKY/WX    TMP DP  RH WIND       PRES   REMARKS
N CHARLESTON   CLEAR     67  59  75 CALM      30.26R
WATERFRONT PAR   N/A     71  64  78 E6        30.22R
MOUNT PLEASANT FAIR      63  61  94 CALM      30.26R
JOHNS ISLAND   CLEAR     64  61  88 CALM      30.26R
PINOPOLIS        N/A    N/A N/A N/A VRB2      30.19R
MONCKS CORNER  FAIR      64  61  88 CALM      30.26R
SUMMERVILLE    FAIR      63  61  94 CALM      30.27R
BEAUFORT MCAS  CLEAR     69  62  78 CALM      30.25R
BEAUFORT ARPT  FAIR      64  63  94 CALM      30.25R
HILTON HEAD IS CLEAR     70  63  78 NE5       30.26R
WALTERBORO     CLEAR     63  57  82 CALM      30.27R
ALLENDALE      FAIR      64  57  77 CALM      30.25R

...SOUTHERN MIDLANDS AND PEE DEE...

CITY           SKY/WX    TMP DP  RH WIND       PRES   REMARKS
GEORGETOWN     NOT AVBL
KINGSTREE      NOT AVBL
ORANGEBURG     CLEAR     64  56  75 CALM      30.26R
BARNWELL       FAIR      64  54  68 CALM      30.26R
AIKEN          FAIR      61  48  63 CALM      30.30R
MANNING        FAIR      59  37  44 CALM      30.27R
COLUMBIA       CLEAR     64  51  62 SW3       30.26R
SUMTER         CLEAR     63  48  58 NE5       30.26R
FLORENCE       CLEAR     64  49  57 N6        30.27R
MYRTLE BEACH   NOT AVBL
N MYRTLE BEACH CLEAR     62  59  90 CALM      30.26R

$$

GAZ063-065-086>088-099>101-113>116-118-119-134>141-150-230400-
...SOUTHEAST GEORGIA...

CITY           SKY/WX    TMP DP  RH WIND       PRES   REMARKS
SAVANNAH ARPT  CLEAR     68  61  78 E3        30.25R
HUNTER AAF     CLEAR     68  62  81 E3        30.22R
FORT STEWART   CLEAR     65  61  85 CALM      30.23R
STATESBORO     CLEAR     61  61  99 CALM      30.25R
SYLVANIA       CLEAR     64  60  86 CALM      30.26R
CLAXTON        FAIR      64  63  94 CALM      30.25R

...CSRA...CENTRAL AND FAR SOUTHEAST GEORGIA...

CITY           SKY/WX    TMP DP  RH WIND       PRES   REMARKS
THOMSON        CLEAR     60  58  94 CALM      30.31R
AUGUSTA-BUSH   CLEAR     59  54  83 S5        30.25R
AUGUSTA-DANIEL CLEAR     72  49  44 NE7       30.26R
SWAINSBORO     FAIR      68  59  73 CALM      30.25R
VIDALIA        CLEAR     70  61  73 SE3       30.25R
EASTMAN        FAIR      70  59  66 E5        30.26R
HAZLEHURST     FAIR      72  64  75 SE3       30.23R
ALMA           CLEAR     69  62  78 E6        30.23R
WAYCROSS       CLEAR     69  64  84 E5        30.23R
JESUP          FAIR      68  64  88 CALM      30.24R
BAXLEY         MOCLDY    70  63  78 CALM      30.23R
BRUNSWICK      CLEAR     68  61  77 CALM      30.23S
SAINT SIMONS   NOT AVBL

$$

SCZ027-028-034-036>038-045-046-048>050-GAZ119-141-230400-
...LAKE AND SUPPLEMENTAL COASTAL OBSERVATIONS...

STATION/POSITION TIME  TEMP    WIND        PRES    WAVE   SWELL
                       AIR SEA DIR/SP/G            HT/PER HT/PER/DIR
                 (UTC) (F)     (DEG/KT/KT) (MB)    (FT/S) (FT/S/D)
UPR LAKE MARION  NOT AVBL
WINYAH BAY       0145   69      80/  5     1023.0
LAKE MURRAY      0200   68      CALM  /  2 1023.7R
ACE BASIN NERRS  NOT AVBL
FORT PULASKI     0200   73 79   90/ 12/ 13 1023.9R
SAPELO ISLAND    0200   71      60/  6     1023.0R

$$

ANZ835-935-AMZ111-154-330-350-352-354-370-450-454-472-230400-
...C-MAN AND BUOY OBSERVATIONS...

STATION/POSITION TIME  TEMP    WIND        PRES    WAVE   SWELL
                       AIR SEA DIR/SP/G            HT/PER HT/PER/DIR
                 (UTC) (F)     (DEG/KT/KT) (MB)    (FT/S) (FT/S/D)
BUOY 41004       0250   72 76   60/ 14/ 16 1023.4R   3/ 6   2/ 8
BUOY 41008       0250   73 76   70/ 14/ 17 1023.3R   4/ 7   2/ 50/12
FOLLY BEACH CMAN 0200   71      90/  8/ 11 1023.8R
CAPERS NEARSHORE 0208   72      90/ 10/ 14 1023.9R
FRIPP NEARSHORE  0200   72     100/ 10/ 12 1022.8R


STATION/POSITION TIME  TEMP    WIND        PRES    WAVE   SWELL
                       AIR SEA DIR/SP/G            HT/PER HT/PER/DIR
                 (UTC) (F)     (DEG/KT/KT) (MB)    (FT/S) (FT/S/D)
5E ST. MARYS GA  0221      76                N/A     5/ 5
FRYING PAN BUOY  0250   71 74   70/ 10/ 12 1024.9R   2/ 6   2/ 70/ 6
BUOY 41025       0250   67 77   30/  4/  6 1025.1R   3/ 9   3/ 60/ 9
CAPE LOOKOUT NC  0200   67     100/  5/  7 1024.4R
BUOY 41002       0250   72 74   50/ 17/ 19 1022.8R   6/ 8   3/ 10/ 8
BUOY 41010       0220   80 80   10/  6/  8 1021.2R
ST AUGUSTINE FL  0300   74 75   30/ 15/ 16 1023.4R


$$


USA.gov is the U.S. government's official web portal to all federal, state and local government web resources and services.